Location: Ajisawe
(8.4333°N, 4.3833°E)
Time: 06:42:51
(UTC+00:00)

A-11 Canister half - Pass Details

Date: 20 April 2021
Orbit: 1514 x 1685 km, 47.2° (Epoch: 12 May)

Event Time Altitude Azimuth Distance (km) Brightness Sun altitude
Rises 17:50:24 0° 219° (SW) 4,660 11.9 -0.5°
Reaches altitude 10° 17:53:25 10° 219° (SW) 3,671 11.4 -1.2°
Maximum altitude 18:02:40 88° 131° (SE) 1,518 9.0 -3.4°
Drops below altitude 10° 18:12:00 10° 41° (NE) 3,705 10.7 -5.7°
Sets 18:15:04 0° 41° (NE) 4,705 11.3 -6.4°
